This demonstration page uses our WeatherBlox Daily Observations layout. Learn more.

Hourly Observations for August 23, 2015

Temp ( °F °C ) Dew Point ( °F °C ) Humidity (%) Winds ( mph kmh ) Pressure ( in mb ) Visibility ( mi km ) Precip ( " mm )
12:15 am 00:15 Clear 59 15.1 45 7.1 59 59 N 15 24 30.09 1019 10 16.0934 0 0
12:35 am 00:35 Clear 59 15 44 6.6 57 57 N 16 26 30.09 1019 10 16.0934 0 0
12:55 am 00:55 Clear 58 14.7 43 6.3 57 57 N 15 24 30.09 1019 10 16.0934 0 0
1:15 am 01:15 Clear 57 14.1 43 6.2 59 59 N 12 19 30.09 1019 10 16.0934 0 0
1:35 am 01:35 Clear 57 13.7 43 6 60 60 N 9 15 30.09 1019 10 16.0934 0 0
1:55 am 01:55 Clear 56 13.5 42 5.6 59 59 N 9 15 30.09 1019 10 16.0934 0 0
2:15 am 02:15 Clear 56 13.4 42 5.3 58 58 N 7 11 30.15 1021 10 16.0934 0 0
2:35 am 02:35 Clear 55 13 41 4.9 58 58 N 8 13 30.15 1021 10 16.0934 0 0
2:55 am 02:55 Clear 54 12.2 41 4.9 61 61 NNW 9 15 30.15 1021 10 16.0934 0 0
3:15 am 03:15 Clear 54 12.1 40 4.6 60 60 NNW 12 19 30.15 1021 10 16.0934 0 0
3:35 am 03:35 Clear 54 12 40 4.5 60 60 NNW 10 17 30.15 1021 10 16.0934 0 0
3:55 am 03:55 Clear 54 12 40 4.2 59 59 NNW 12 19 30.15 1021 10 16.0934 0 0
4:15 am 04:15 Clear 53 11.8 40 4.2 60 60 NW 7 11 30.15 1021 10 16.0934 0 0
4:35 am 04:35 Clear 51 10.7 40 4.6 66 66 NW 7 11 30.15 1021 10 16.0934 0 0
4:55 am 04:55 Clear 51 10.5 40 4.5 67 67 WNW 3 6 30.15 1021 10 16.0934 0 0
5:15 am 05:15 Clear 50 10.1 40 4.7 69 69 W 6 9 30.18 1022 10 16.0934 0 0
5:35 am 05:35 Clear 49 9.5 40 4.6 72 72 W 6 9 30.21 1023 10 16.0934 0 0
5:55 am 05:55 Clear 50 9.9 40 4.5 69 69 WNW 6 9 30.21 1023 10 16.0934 0 0
6:15 am 06:15 Clear 47 8.6 41 5 78 78 NW 8 13 30.18 1022 10 16.0934 0 0
6:35 am 06:35 Clear 48 8.8 40 4.6 75 75 NW 6 9 30.21 1023 10 16.0934 0 0
6:55 am 06:55 Clear 47 8.5 40 4.6 77 77 NW 3 6 30.21 1023 10 16.0934 0 0
7:15 am 07:15 Sunny 47 8.1 41 4.9 80 80 Calm 30.24 1024 10 16.0934 0 0
7:35 am 07:35 Sunny 47 8.5 41 5 79 79 WSW 3 6 30.24 1024 10 16.0934 0 0
7:55 am 07:55 Sunny 50 9.9 41 5 72 72 W 3 6 30.24 1024 10 16.0934 0 0
8:15 am 08:15 Sunny 50 10.2 42 5.5 73 73 W 5 7 30.24 1024 10 16.0934 0 0
8:35 am 08:35 Sunny 52 11 42 5.3 68 68 WNW 5 7 30.27 1025 10 16.0934 0 0
8:55 am 08:55 Sunny 54 12 43 5.9 67 67 NW 5 7 30.24 1024 10 16.0934 0 0
9:15 am 09:15 Sunny 55 13 42 5.8 62 62 NNW 7 11 30.24 1024 10 16.0934 0 0
9:35 am 09:35 Sunny 57 13.9 41 4.9 55 55 NW 9 15 30.24 1024 10 16.0934 0 0
9:55 am 09:55 Sunny 58 14.6 40 4.7 52 52 NNW 9 15 30.21 1023 10 16.0934 0 0
10:15 am 10:15 Sunny 59 15 41 5 51 51 NNW 13 20 30.21 1023 10 16.0934 0 0
10:35 am 10:35 Sunny 60 15.6 41 4.9 49 49 N 14 22 30.21 1023 10 16.0934 0 0
10:55 am 10:55 Sunny 60 15.8 38 3.5 44 44 NNW 10 17 30.21 1023 10 16.0934 0 0
11:15 am 11:15 Sunny 62 16.5 39 3.7 43 43 NNW 9 15 30.21 1023 10 16.0934 0 0
11:35 am 11:35 Sunny 63 17.4 41 5.2 45 45 N 12 19 30.21 1023 10 16.0934 0 0
11:55 am 11:55 Sunny 63 17 39 3.9 42 42 NNW 10 17 30.21 1023 10 16.0934 0 0
12:15 pm 12:15 Sunny 63 17.4 40 4.4 42 42 N 9 15 30.21 1023 10 16.0934 0 0
12:35 pm 12:35 Sunny 65 18.1 42 5.3 43 43 NW 7 11 30.21 1023 10 16.0934 0 0
12:55 pm 12:55 Sunny 65 18.5 39 3.9 38 38 NW 12 19 30.18 1022 10 16.0934 0 0
1:15 pm 13:15 Sunny 66 18.8 39 4.1 38 38 NW 12 19 30.18 1022 10 16.0934 0 0
1:35 pm 13:35 Sunny 66 19.1 39 3.7 36 36 N 9 15 30.15 1021 10 16.0934 0 0
1:55 pm 13:55 Sunny 67 19.4 39 4.1 37 37 NW 9 15 30.15 1021 10 16.0934 0 0
2:15 pm 14:15 Sunny 67 19.6 41 4.9 38 38 NW 13 20 30.15 1021 10 16.0934 0 0
2:35 pm 14:35 Sunny 68 20 40 4.7 37 37 NW 12 19 30.15 1021 10 16.0934 0 0
2:55 pm 14:55 Sunny 68 20.2 40 4.3 35 35 NNW 6 9 30.15 1021 10 16.0934 0 0
3:15 pm 15:15 Sunny 69 20.3 39 3.8 34 34 WNW 9 15 30.15 1021 10 16.0934 0 0
3:35 pm 15:35 Sunny 69 20.4 41 4.9 36 36 NNW 5 7 30.12 1020 10 16.0934 0 0
3:55 pm 15:55 Sunny 70 20.9 41 5.1 36 36 NW 5 7 30.12 1020 10 16.0934 0 0
4:15 pm 16:15 Sunny 70 21.1 40 4.5 34 34 N 3 6 30.12 1020 10 16.0934 0 0
4:35 pm 16:35 Sunny 70 21.1 39 4 33 33 W 3 6 30.12 1020 10 16.0934 0 0
4:55 pm 16:55 Sunny 70 21.2 41 5.1 35 35 W 7 11 30.12 1020 10 16.0934 0 0
5:15 pm 17:15 Sunny 71 21.5 38 3.6 31 31 WNW 3 6 30.06 1018 10 16.0934 0 0
5:35 pm 17:35 Sunny 71 21.5 42 5.4 35 35 Calm 30.06 1018 10 16.0934 0 0
5:55 pm 17:55 Sunny 70 21.3 41 5 35 35 NNW 3 6 30.06 1018 10 16.0934 0 0
6:15 pm 18:15 Sunny 70 21.1 42 5.5 36 36 Calm 30.06 1018 10 16.0934 0 0
6:35 pm 18:35 Sunny 70 20.9 42 5.6 37 37 Calm 30.06 1018 10 16.0934 0 0
6:55 pm 18:55 Sunny 69 20.6 45 7.2 42 42 Calm 30.06 1018 10 16.0934 0 0
7:15 pm 19:15 Sunny 69 20.7 44 6.9 41 41 Calm 30.06 1018 10 16.0934 0 0
9:55 pm 21:55 Clear 58 14.5 49 9.5 72 72 Calm 30.12 1020 10 16.0934 0 0
10:15 pm 22:15 Clear 58 14.5 49 9.5 72 72 SSW 3 6 30.12 1020 10 16.0934 0 0
10:35 pm 22:35 Clear 58 14.5 48 9 70 70 SW 3 6 30.12 1020 10 16.0934 0 0
10:55 pm 22:55 Clear 56 13.6 47 8.5 72 72 Calm 30.12 1020 10 16.0934 0 0
11:15 pm 23:15 Clear 56 13.4 47 8.5 72 72 SSW 5 7 30.15 1021 10 16.0934 0 0
11:35 pm 23:35 Clear 57 14 46 8 67 67 SW 3 6 30.18 1022 10 16.0934 0 0
11:55 pm 23:55 Clear 57 13.7 46 7.7 67 67 SSW 3 6 30.18 1022 10 16.0934 0 0

Powered by AerisWeather